Date,TemperatureHighF,TemperatureAvgF,TemperatureLowF,DewpointHighF,DewpointAvgF,DewpointLowF,HumidityHigh,HumidityAvg,HumidityLow,PressureMaxIn,PressureMinIn,WindSpeedMaxMPH,WindSpeedAvgMPH,GustSpeedMaxMPH,PrecipitationSumIn
2013-2-1,36,26,12,34,22,6,98,85,69,0.00,40.00,8,4,16,0.05
2013-2-2,38,34,29,32,27,22,98,76,60,0.00,40.00,14,7,30,0.08
2013-2-3,43,34,20,30,24,14,94,70,49,0.00,40.00,7,4,16,0.01
2013-2-4,46,32,19,34,26,18,98,78,55,0.00,40.00,8,4,19,0.01
2013-2-5,43,34,27,31,25,20,88,70,49,0.00,40.00,7,4,17,0.00
2013-2-6,48,38,30,33,27,21,90,66,42,0.00,40.00,10,4,23,0.00
2013-2-7,49,35,28,31,23,19,90,64,37,0.00,40.00,5,3,10,0.00
2013-2-8,48,34,25,31,26,19,93,74,45,0.00,40.00,5,3,12,0.00
2013-2-9,42,30,19,28,24,18,98,80,51,0.00,40.00,5,1,7,0.00
2013-2-10,30,26,18,28,20,13,95,80,69,0.00,40.00,13,7,26,0.00
2013-2-11,38,24,14,21,15,8,89,70,44,0.00,40.00,7,4,21,0.00
2013-2-12,48,33,25,29,22,17,78,64,41,0.00,40.00,7,5,17,0.00
2013-2-13,45,37,31,32,26,18,74,63,51,0.00,40.00,11,8,31,0.00
2013-2-14,31,26,17,24,20,14,88,77,64,0.00,40.00,14,6,36,0.00
2013-2-15,40,27,15,21,16,9,88,65,40,0.00,40.00,7,3,16,0.02
2013-2-16,58,41,33,36,28,21,80,61,34,0.00,40.00,9,4,17,0.01
2013-2-17,45,36,27,34,28,21,98,75,49,0.00,40.00,12,7,32,0.00
2013-2-18,27,19,5,22,13,2,86,76,56,0.00,40.00,11,6,26,0.00
2013-2-19,21,10,-2,6,0,-6,85,66,46,0.00,40.00,15,8,31,0.00
2013-2-20,30,17,10,13,6,1,70,60,45,0.00,40.00,11,6,26,0.00
2013-2-21,31,22,12,22,16,9,94,76,59,0.00,40.00,5,3,11,0.00
2013-2-22,45,28,15,22,17,12,94,67,29,0.00,40.00,6,3,14,0.00
2013-2-23,48,36,27,28,20,13,72,54,32,0.00,40.00,5,4,17,0.00
2013-2-24,43,33,26,32,22,12,98,66,29,0.00,40.00,8,5,19,0.01
2013-2-25,50,35,26,23,18,12,72,51,26,0.00,40.00,9,5,19,0.01
2013-2-26,43,33,27,30,24,18,80,68,52,0.00,40.00,9,4,18,0.00
2013-2-27,33,28,21,25,23,20,96,81,70,0.00,40.00,7,4,16,0.00
2013-2-28,48,32,21,27,21,17,96,68,31,0.00,40.00,6,3,18,0.00